Location: Newark
(15.5700°N, 75.3700°E)
Time: 05:26:29
(UTC+00:00)

ISS - Pass Details

Date: 15 November 2019
Orbit: 411 x 421 km, 51.6° (Epoch: 09 December)

Event Time Altitude Azimuth Distance (km) Brightness Sun altitude
Exits shadow 00:08:23 - 344° (NNW) 1,756 -0.9 -12.8°
Reaches altitude 10° 00:09:06 10° 350° (N) 1,495 -1.2 -12.7°
Maximum altitude 00:12:01 27° 50° (NE) 837 -1.9 -12.0°
Drops below altitude 10° 00:14:55 10° 110° (ESE) 1,489 0.6 -11.3°
Sets 00:17:12 0° 123° (ESE) 2,349 1.7 -10.8°
